Theta_e
283 282 282 281 281 281 281 281 280 280 280 280 280 279 280 280 280 280 280 279 279 279 278 278 278 278 278 278 277 277 277 277 278 277 277 277 277 278 278 278 277 277 278 278 279 279 279 278 279 279 280 279 280 280 280 281 281 281 282 282 282 283 283 281 280 280 283 286 285 285 287 287 286 288 287 287 288 289 289 291 291 290 290 290 290
282 282 281 281 280 280 279 280 280 280 279 279 279 279 279 279 279 279 278 278 278 278 277 277 277 277 276 276 276 276 276 276 276 276 276 276 276 277 276 276 276 276 277 276 277 278 278 277 277 278 279 279 279 279 279 279 280 280 280 280 280 281 283 281 280 280 279 283 283 285 285 287 284 287 286 286 286 287 287 289 290 290 289 289 289
281 281 281 280 279 279 279 279 279 279 279 278 278 278 278 278 278 277 276 276 276 276 276 276 275 275 275 275 275 275 275 275 275 275 275 275 274 275 275 275 275 275 275 275 276 276 276 276 276 277 278 277 278 278 279 279 279 279 279 280 279 280 281 281 280 278 279 279 283 282 283 284 284 284 286 287 287 287 286 287 287 289 289 290 289
281 280 279 279 278 278 278 278 278 278 277 277 277 277 277 276 276 275 275 275 274 275 274 274 274 274 273 274 274 274 274 274 273 274 273 273 273 273 274 274 274 274 274 275 275 275 275 275 275 276 276 276 276 276 277 278 278 278 278 279 279 279 280 280 280 279 279 278 280 281 282 282 283 285 285 286 286 286 286 286 287 287 288 289 289
281 280 279 278 278 277 277 277 277 277 276 276 276 276 275 275 275 274 274 273 273 273 273 273 273 273 272 273 273 272 272 272 272 272 272 273 273 272 273 273 273 274 274 274 275 274 274 274 274 275 275 274 274 275 276 275 276 276 276 277 278 278 279 279 279 280 279 278 278 281 282 282 283 283 284 283 284 285 286 286 286 286 287 288 288
280 279 278 278 277 277 277 276 276 276 276 275 275 274 274 273 273 273 273 272 272 272 272 272 272 272 272 272 272 271 271 271 271 271 271 271 272 272 273 273 273 273 274 274 274 274 273 273 274 274 274 273 273 274 274 274 275 275 275 276 277 277 277 278 278 278 278 278 278 278 280 280 281 281 283 283 282 282 283 284 285 286 286 286 287
278 278 277 277 276 276 276 276 275 275 275 274 274 273 272 272 271 271 271 271 271 270 271 271 271 271 271 271 270 270 270 270 270 270 270 271 272 272 273 273 273 273 273 273 273 273 273 273 273 273 273 273 273 273 274 274 274 275 276 276 277 277 277 277 278 278 278 278 278 279 279 280 281 279 282 284 283 283 281 282 282 284 285 285 285
278 277 276 276 276 275 275 275 274 274 274 273 272 271 271 271 270 270 270 269 269 269 269 269 269 270 270 269 269 269 269 269 269 270 270 271 272 272 272 272 272 272 272 273 273 273 273 273 273 273 273 274 274 274 275 274 275 275 276 276 276 276 275 276 277 277 277 277 277 277 278 278 279 281 282 282 281 281 282 281 280 281 283 284 285
277 276 276 275 275 275 275 274 274 273 272 271 270 270 270 269 269 269 269 268 268 268 268 268 268 268 268 268 268 268 268 268 268 269 271 272 273 272 272 272 272 272 272 272 273 273 273 273 273 273 274 275 276 276 276 276 274 273 274 275 275 275 275 275 275 275 275 275 275 277 277 277 278 279 279 279 279 279 281 282 281 282 282 282 284
276 275 274 274 274 274 273 273 272 271 271 270 269 269 268 268 267 267 267 267 267 267 267 267 267 267 266 267 267 267 267 267 268 271 273 273 273 273 272 272 272 272 272 271 272 272 272 272 272 273 274 274 274 274 275 275 276 275 274 274 273 273 273 273 273 274 274 274 274 275 275 275 277 278 278 279 280 281 280 280 279 281 282 281 283
274 274 273 273 273 272 272 271 270 269 269 268 267 267 267 266 266 266 265 266 266 266 266 266 266 266 266 266 265 266 266 266 269 272 273 274 273 272 272 272 272 272 271 271 270 271 271 271 271 272 272 272 271 273 274 275 275 275 276 276 276 274 272 272 272 273 272 272 273 273 274 274 276 277 278 279 280 280 280 280 280 280 279 278 278
273 272 272 272 272 271 270 269 268 268 267 266 266 265 265 264 264 264 264 264 265 265 265 265 265 265 265 265 265 265 265 267 270 272 273 274 275 273 273 272 271 271 271 270 270 270 270 270 270 270 270 270 271 271 272 273 274 275 275 275 276 277 277 274 273 272 273 272 273 273 274 273 274 275 276 277 277 278 279 279 279 279 278 278 278
271 271 271 270 269 269 268 267 267 266 265 265 264 264 263 263 263 263 263 264 264 264 264 264 264 264 264 264 264 264 264 266 269 271 273 274 275 274 272 272 271 271 270 270 269 269 269 268 268 269 269 271 271 270 270 270 272 273 274 274 274 275 275 276 277 275 274 273 272 272 273 273 273 275 277 276 278 276 276 276 276 277 277 276 277
270 270 269 269 268 267 266 266 265 265 264 264 263 263 262 262 263 263 263 263 263 263 263 263 263 263 263 263 263 263 263 265 269 271 273 273 274 274 272 271 271 270 269 269 268 268 268 268 268 268 269 269 270 270 270 270 270 270 271 271 271 273 275 275 275 276 275 273 273 271 273 274 273 274 276 277 276 275 275 275 277 277 276 276 278
269 269 268 267 267 266 266 265 264 264 263 263 262 262 262 262 262 263 262 262 262 262 262 261 261 262 262 262 262 262 262 267 270 271 272 273 273 273 271 270 269 268 268 268 268 268 268 268 268 268 268 269 269 270 270 270 270 270 270 271 271 272 272 273 273 273 274 274 274 274 275 276 276 276 277 277 277 277 277 277 278 278 279 280 280
268 267 266 266 266 266 264 264 263 263 263 262 261 261 262 262 261 262 261 262 262 262 262 261 261 260 261 261 261 261 262 266 269 270 271 272 273 270 269 268 268 268 268 268 268 268 268 268 268 268 268 269 271 273 273 272 271 270 270 271 271 272 273 275 277 277 276 275 275 275 275 276 278 277 279 279 279 279 279 279 279 279 278 276 276
267 267 266 265 265 265 265 263 262 262 262 261 260 260 261 261 261 261 260 261 261 260 260 260 260 260 260 260 260 260 261 264 268 270 271 272 271 268 268 268 267 267 267 268 268 269 269 269 269 269 269 269 271 274 275 275 272 272 272 272 272 273 273 274 276 278 278 278 279 279 280 280 280 281 281 281 279 279 277 275 274 276 275 274 275
267 266 265 264 264 264 264 262 262 261 260 259 260 261 260 260 260 260 260 259 259 259 260 259 259 259 259 259 259 259 260 263 267 269 270 271 270 268 267 267 267 267 267 268 269 269 269 271 271 270 270 270 273 275 276 275 273 273 272 271 271 271 272 274 274 275 277 278 279 279 279 280 280 280 280 280 280 279 276 273 274 275 272 272 271
266 265 265 264 264 263 262 262 262 260 260 260 259 259 259 259 260 259 259 259 259 259 259 258 258 259 259 259 261 261 260 262 265 267 269 270 269 268 268 267 267 267 267 267 269 269 269 271 272 272 272 273 276 277 277 275 273 273 272 272 271 271 272 274 274 273 273 273 274 274 275 276 276 276 276 279 279 279 277 275 275 273 271 271 272
266 265 264 263 263 262 261 260 260 259 260 259 259 259 259 258 258 259 258 258 258 258 258 258 257 258 259 259 259 260 260 260 261 267 269 270 271 269 268 267 266 266 267 267 267 268 269 270 271 274 275 276 276 277 277 277 274 274 274 272 271 271 274 274 274 274 274 274 274 274 274 275 276 276 276 276 276 276 276 275 275 274 272 272 272
264 264 263 262 261 260 260 259 258 258 259 258 259 258 258 259 258 257 257 257 257 257 257 257 257 257 258 259 259 259 259 260 261 267 269 270 271 271 268 268 268 267 267 268 268 268 269 270 271 273 275 276 277 277 277 277 277 275 274 273 273 274 276 274 275 276 275 274 274 274 273 273 273 273 274 274 274 274 274 275 275 274 273 272 271
263 262 262 261 260 258 257 257 257 256 256 256 256 256 257 257 257 256 257 256 255 255 256 256 257 257 258 259 259 259 260 262 261 265 268 270 271 272 270 269 270 269 269 269 270 270 270 271 271 273 275 276 277 277 277 277 278 275 275 277 278 279 276 276 275 274 273 273 273 272 272 272 272 272 272 272 273 274 274 274 275 275 275 275 273
262 261 260 259 258 256 256 255 256 255 254 254 254 255 255 254 254 254 254 254 255 255 255 256 256 256 257 258 259 259 259 260 264 264 268 270 272 272 273 272 274 272 270 269 270 270 271 271 272 274 276 276 277 277 278 279 277 275 278 278 278 278 277 274 274 273 272 272 271 271 271 271 271 271 271 271 272 273 273 273 274 274 274 274 274
260 259 258 257 256 255 254 254 254 253 254 254 253 253 253 253 254 254 254 255 255 255 256 256 256 256 256 257 258 260 260 261 263 267 267 270 272 273 273 274 274 271 271 271 271 271 271 271 272 275 277 277 277 278 278 277 275 277 277 277 277 276 273 272 271 270 270 269 268 268 268 269 269 269 269 270 271 271 272 272 272 272 273 273 273
258 256 256 254 254 253 253 253 252 252 252 253 253 254 254 253 254 253 253 254 254 255 255 254 255 255 256 256 258 260 262 264 265 266 269 270 272 272 273 274 274 275 272 271 272 272 274 276 277 277 277 277 277 277 275 275 276 276 276 276 274 270 269 269 268 268 267 267 267 267 267 268 269 269 270 271 271 271 271 271 272 272 272 272 272
256 256 254 253 253 252 252 252 251 252 252 253 253 253 253 254 254 254 253 254 254 254 254 255 255 255 256 258 260 262 263 264 265 266 268 269 269 271 272 273 273 274 274 272 274 275 276 276 276 276 275 273 271 270 270 270 273 273 272 271 267 267 267 266 266 266 265 266 266 266 267 269 269 270 271 271 270 270 270 270 270 270 271 271 270
256 255 254 254 252 251 252 252 253 252 251 252 252 253 254 253 253 254 254 254 254 254 255 255 256 256 257 260 261 263 264 264 265 266 267 267 268 269 270 271 273 273 272 271 273 272 273 273 272 273 272 272 270 270 269 268 266 266 266 266 266 266 266 266 265 266 266 266 267 267 268 269 270 269 269 269 269 270 270 270 269 269 269 269 269
256 255 253 253 253 252 252 255 255 254 253 252 253 253 253 253 253 254 254 255 254 255 255 256 257 258 259 261 262 262 263 265 266 265 266 267 269 270 271 271 271 271 271 271 271 271 270 270 269 267 265 264 264 264 264 264 265 265 265 265 265 265 266 268 268 267 267 267 267 267 267 268 267 268 268 269 269 269 270 270 269 269 269 269 268
255 252 252 250 252 254 253 253 253 253 252 252 253 254 254 254 255 255 256 257 257 257 257 258 259 260 260 260 261 263 264 264 265 269 269 272 270 270 270 271 271 270 270 273 270 268 266 264 262 262 262 262 262 262 263 263 263 263 263 263 264 265 264 264 264 264 265 265 265 265 266 267 267 268 268 268 268 269 270 270 270 270 270 270 268
254 253 252 252 252 252 253 252 251 253 252 252 252 253 257 261 260 259 259 263 266 268 267 264 264 265 266 267 267 264 264 265 270 272 272 272 274 274 273 273 272 270 271 271 266 262 260 260 260 260 260 260 260 260 261 261 261 261 262 263 263 262 263 263 263 264 264 264 265 265 265 266 266 267 267 267 268 269 270 271 269 270 269 268 267
254 254 253 252 253 253 252 251 252 251 251 252 251 253 253 255 261 264 265 265 266 267 268 269 269 269 267 265 266 269 270 270 271 271 272 273 273 272 272 272 271 270 270 265 260 259 258 258 259 259 259 259 259 259 260 260 260 260 260 261 261 262 262 262 263 263 264 264 264 264 265 265 266 267 267 268 268 268 269 270 270 270 269 268 268
255 254 253 253 255 254 253 253 253 252 252 253 251 252 252 252 254 259 262 263 265 266 266 267 267 267 268 267 266 266 268 270 270 271 272 272 272 271 271 270 269 269 268 266 258 257 258 257 257 258 258 258 259 259 259 259 259 259 259 260 260 261 262 262 263 263 263 263 264 264 265 266 267 267 268 268 269 269 269 269 269 269 269 269 269
254 253 253 253 254 255 254 253 253 253 251 251 251 251 252 252 252 253 256 260 262 263 264 265 265 266 267 267 268 268 268 269 270 271 271 271 271 270 270 268 267 267 266 260 257 257 257 257 257 257 258 258 258 258 258 259 259 259 259 259 260 261 261 262 263 263 263 264 265 265 266 266 267 268 269 269 269 269 269 269 270 270 269 269 269
254 253 253 253 253 253 253 253 253 253 253 253 251 252 252 252 252 252 253 253 255 257 260 262 264 265 265 266 267 267 268 269 269 270 270 270 269 269 268 262 265 265 263 258 257 256 256 256 257 257 257 258 258 258 258 259 259 259 259 260 260 261 261 262 263 263 264 264 265 266 267 267 268 268 268 269 270 270 270 270 270 269 269 269 269
252 254 255 254 253 253 253 255 254 252 252 252 252 254 253 253 254 254 253 252 252 252 253 255 259 263 262 263 265 267 267 268 269 269 269 268 268 268 264 257 256 256 257 255 256 256 256 256 256 257 257 257 257 258 258 258 259 259 259 260 260 261 262 263 263 264 264 265 266 266 267 267 267 268 268 268 268 269 270 270 270 270 270 270 270
253 253 254 255 254 254 254 253 254 253 252 252 252 252 255 253 253 252 253 253 252 252 252 253 254 258 262 263 264 265 266 267 268 268 267 267 266 264 256 255 255 255 255 256 256 256 257 257 257 257 257 257 258 258 258 258 259 259 260 261 261 262 262 263 264 265 266 266 266 266 267 267 267 267 267 268 268 269 270 270 271 271 271 271 271
252 253 254 254 253 254 253 252 251 252 255 254 254 254 254 252 252 251 252 251 251 252 252 252 253 253 257 255 258 262 265 266 267 266 265 264 264 259 254 255 254 255 255 255 256 256 256 256 257 257 257 257 258 258 259 259 260 260 262 262 262 263 264 265 266 266 265 265 265 266 266 266 266 267 267 267 268 269 271 271 271 271 272 272 272
253 253 253 252 253 252 252 251 252 255 254 253 251 250 250 250 250 251 252 251 252 253 252 251 253 252 252 254 257 257 258 264 265 261 260 259 256 254 254 254 255 254 255 255 256 256 256 256 257 257 257 258 258 258 259 260 261 262 262 264 264 265 267 266 266 265 265 265 265 266 266 266 266 267 267 267 268 269 270 271 271 271 271 272 272
252 255 255 256 256 252 251 251 251 251 250 251 250 250 251 250 250 250 251 249 250 250 251 251 251 252 252 253 254 256 259 259 257 255 254 254 254 253 253 253 254 254 255 255 255 256 256 256 257 257 257 258 258 259 260 261 262 263 264 265 265 266 266 266 265 265 265 265 265 266 265 266 266 266 267 267 268 269 270 271 271 271 271 271 272
253 253 256 257 255 257 255 254 252 250 251 249 249 249 249 250 250 250 249 248 250 250 251 251 252 252 253 253 254 257 260 258 255 253 253 253 253 253 252 253 253 254 254 255 255 255 256 256 257 257 257 258 258 259 260 261 262 263 264 265 265 265 266 266 266 265 265 265 265 265 265 265 265 266 267 267 268 269 269 269 271 272 272 273 273
252 253 254 257 255 254 253 252 251 250 249 250 250 249 249 250 250 250 249 250 250 251 251 251 251 252 253 256 262 264 259 255 253 252 252 252 253 252 252 253 253 253 254 254 255 256 256 256 256 257 257 258 259 259 260 261 262 263 264 265 266 266 266 266 266 266 265 265 265 265 265 265 265 266 266 267 269 269 268 269 270 271 271 272 272
251 251 251 251 254 251 250 250 250 252 250 250 249 249 250 250 250 249 250 250 251 251 251 251 252 252 255 260 261 263 258 253 251 252 252 252 252 252 253 252 252 252 253 254 254 255 255 256 256 257 257 257 258 259 260 261 262 263 264 265 265 266 266 266 266 266 265 265 265 265 265 265 265 266 266 267 267 267 268 268 269 269 270 271 271
251 251 251 250 250 250 250 249 248 247 247 248 249 251 251 250 249 250 250 250 251 251 250 251 251 251 252 257 258 258 254 251 252 252 251 252 252 252 252 252 252 252 252 253 254 254 255 255 256 256 257 257 258 259 260 261 262 263 264 265 265 266 266 266 266 265 265 265 264 264 264 264 265 265 265 266 266 266 267 267 268 268 269 269 270
251 251 251 250 250 249 249 248 248 248 248 250 251 250 250 250 249 249 249 249 249 250 250 250 251 251 251 253 253 252 250 250 250 250 251 252 252 252 252 252 252 252 252 253 253 254 254 254 255 256 257 257 258 259 260 261 262 263 264 264 265 266 267 266 266 265 265 264 264 264 264 264 264 264 265 265 265 265 266 266 267 267 268 268 269
251 251 251 250 249 248 247 248 248 248 250 250 248 248 250 249 249 249 249 249 250 250 250 251 251 251 251 251 250 250 250 250 251 251 251 251 251 251 251 251 252 252 252 252 253 253 253 254 254 255 256 257 258 259 260 261 262 264 264 265 265 266 266 267 266 266 265 264 263 263 263 263 263 263 264 264 265 265 265 265 266 266 267 268 268
251 250 250 249 249 248 247 245 248 247 248 248 247 247 247 246 247 248 249 250 250 250 250 250 250 249 250 250 250 250 250 250 250 250 251 251 251 251 251 251 251 251 252 252 252 252 253 253 254 254 255 255 256 258 259 261 262 263 264 265 266 267 268 268 267 265 264 263 263 262 262 262 262 263 264 264 264 264 264 265 265 266 266 267 268
250 250 250 249 249 248 248 248 247 247 246 247 247 247 248 248 248 249 249 250 250 250 250 250 249 249 249 249 249 249 250 250 250 250 250 250 250 250 250 250 251 251 251 252 252 252 252 253 253 254 254 255 256 257 258 260 261 263 264 265 266 267 268 268 267 265 264 263 262 262 262 262 262 262 263 263 263 263 264 264 264 265 265 266 267
250 250 249 249 249 248 247 247 248 250 248 248 248 248 248 248 248 249 249 249 249 250 250 249 249 248 249 249 249 249 250 249 250 250 250 250 250 250 250 249 250 251 251 251 252 252 252 253 253 253 253 254 255 256 257 258 260 261 263 264 266 266 267 267 267 265 265 264 262 261 261 261 261 262 262 263 263 263 263 263 263 264 265 265 265
250 250 249 249 248 249 247 248 248 248 248 247 247 248 249 248 248 248 248 249 249 249 249 248 248 248 248 248 249 249 249 250 249 249 249 249 249 249 249 250 250 250 251 251 251 251 252 252 252 253 253 254 255 255 256 258 259 260 262 263 264 265 266 268 267 266 265 264 262 261 261 260 260 261 261 262 262 262 262 262 262 263 263 263 263
250 250 249 249 249 249 247 247 246 246 246 245 246 246 248 248 248 248 248 248 248 248 248 248 248 248 248 248 249 249 248 249 249 249 249 249 249 249 250 249 249 250 250 250 251 251 252 252 252 253 253 254 255 255 256 257 259 260 261 262 264 266 268 268 268 266 266 263 261 261 260 260 260 260 261 261 261 260 261 261 261 262 262 261 261
250 250 249 249 249 248 247 246 246 246 245 246 246 246 247 247 248 248 248 248 248 248 248 248 247 247 248 248 248 248 248 248 248 249 249 249 249 249 249 249 250 250 250 250 251 251 251 252 252 253 253 254 255 255 256 257 258 260 261 263 265 267 268 268 268 268 267 264 260 260 260 260 259 259 260 261 261 260 260 261 261 260 260 260 260
Wind_Speed
6 6 6 6 7 8 6 6 6 5 7 6 6 6 5 5 5 4 4 6 5 5 5 5 6 5 6 6 6 6 7 7 6 6 6 7 6 7 7 7 8 7 7 7 5 6 7 8 8 8 8 9 8 8 8 8 8 8 8 8 9 9 8 10 14 17 12 8 11 13 11 11 13 7 12 11 8 7 8 8 8 7 7 7 7
7 6 4 5 8 7 6 5 5 5 7 6 7 6 5 5 4 4 6 5 5 5 5 5 5 5 5 6 6 6 6 6 7 6 7 7 7 5 6 8 8 8 7 8 8 6 8 9 9 8 8 9 9 9 9 9 9 10 10 9 9 10 8 10 13 14 18 10 9 10 11 8 16 10 8 11 10 9 9 8 7 7 7 7 7
6 6 6 7 7 6 6 6 6 7 8 6 6 5 5 5 5 5 5 5 5 5 5 5 5 5 5 5 6 6 6 6 6 7 7 8 8 8 7 8 9 9 10 9 9 9 9 9 10 9 7 10 10 9 9 10 9 10 12 10 11 11 10 10 11 15 17 16 10 11 10 9 11 15 10 8 11 9 11 10 8 8 7 7 8
6 7 7 7 6 6 6 5 7 6 7 5 6 5 5 5 5 5 5 4 4 4 4 5 4 5 5 5 5 6 6 7 6 6 7 8 8 9 8 8 8 8 9 10 10 10 10 11 10 10 11 12 11 10 9 9 9 10 11 11 11 12 12 11 12 13 15 18 15 11 9 11 10 12 11 10 12 11 9 11 11 9 8 7 8
6 6 8 8 5 6 6 5 6 6 6 5 6 5 5 5 5 5 5 5 5 5 5 5 5 6 6 6 7 6 7 7 7 7 7 6 7 8 8 8 8 9 9 9 10 10 11 11 12 11 11 12 12 10 9 12 11 11 12 11 11 11 11 11 12 12 15 18 18 14 11 12 10 11 11 13 13 13 11 11 9 9 9 7 8
6 7 6 8 6 6 5 5 6 6 5 5 6 5 5 5 5 5 5 5 5 5 5 5 5 6 6 5 6 6 6 7 7 8 8 7 7 8 8 8 9 9 10 10 10 9 10 11 11 11 11 11 12 12 12 13 12 12 13 12 11 12 13 14 13 13 14 16 16 18 13 12 12 11 10 10 12 14 14 12 10 8 8 8 7
6 7 6 7 6 5 5 5 5 5 5 5 5 5 5 5 5 5 5 5 5 5 5 5 5 5 5 5 6 6 6 6 7 7 7 8 8 9 9 9 9 9 9 10 10 10 10 10 10 10 11 11 12 12 13 13 11 13 13 13 12 13 13 13 13 14 14 15 16 16 16 14 13 15 11 11 11 12 14 15 14 10 10 10 10
7 7 7 6 5 5 5 5 5 6 5 5 5 5 4 4 5 4 4 5 5 5 5 5 5 4 4 5 5 5 5 6 6 6 7 8 8 9 9 9 10 10 10 10 10 10 10 10 10 10 10 10 11 12 12 12 12 13 12 11 12 14 13 13 13 13 13 14 15 16 15 15 14 12 12 12 13 13 10 11 15 15 13 10 9
7 7 6 5 5 5 5 5 5 6 5 5 5 4 5 4 4 4 4 4 4 4 5 5 5 5 4 4 4 4 4 4 4 6 8 9 9 10 10 10 11 11 12 11 10 10 10 10 10 10 11 15 18 17 17 16 13 13 13 12 12 13 13 12 12 13 13 14 16 15 15 15 14 13 12 11 11 13 11 11 14 15 14 14 13
9 7 6 5 5 5 5 5 5 5 5 4 4 3 4 4 3 3 3 3 3 4 4 4 4 5 5 5 4 4 4 4 7 14 12 10 11 10 10 11 11 11 12 12 11 11 11 11 10 15 16 17 17 18 19 19 19 15 14 13 13 13 13 13 13 13 13 14 14 15 16 16 15 13 14 14 13 13 14 13 14 15 15 15 14
7 7 6 5 5 5 5 5 4 5 4 3 2 3 3 2 2 2 2 3 3 4 4 4 4 5 5 5 5 4 4 5 13 15 15 16 12 11 11 11 11 11 11 11 12 12 11 11 11 13 14 14 13 17 18 19 19 20 21 20 17 14 13 13 13 13 13 14 15 16 16 18 18 15 14 14 12 12 12 13 12 12 13 13 14
8 7 6 5 5 5 4 4 4 4 3 2 2 2 2 1 1 1 2 2 3 3 4 4 5 5 4 5 5 5 5 9 14 15 16 16 14 11 11 10 10 10 11 11 11 11 12 11 11 10 10 12 13 13 15 18 19 19 20 19 20 20 20 15 14 13 13 13 14 14 15 16 17 16 15 14 14 14 13 13 13 12 13 14 14
8 8 6 5 4 4 4 5 4 3 2 2 2 2 2 1 1 2 2 3 3 3 4 5 5 5 5 6 6 6 6 10 15 16 16 16 16 14 10 10 10 11 11 11 11 11 11 11 11 10 9 16 13 13 13 13 16 19 19 20 19 20 20 21 22 17 14 14 15 17 15 15 17 15 14 14 14 16 15 16 15 15 15 17 17
8 8 6 4 4 4 4 3 3 3 2 2 2 2 2 2 2 2 2 3 3 4 4 5 5 5 5 7 7 7 8 11 16 16 16 17 16 15 11 11 10 11 11 11 11 11 11 11 12 12 11 12 12 13 13 13 14 13 13 13 13 16 19 21 22 23 20 15 15 17 16 14 16 17 17 16 17 16 16 16 15 15 16 16 18
7 7 7 4 5 3 4 3 3 2 2 2 2 1 1 1 2 2 2 3 4 4 4 5 5 5 6 6 7 8 7 14 16 17 16 17 17 15 9 9 9 10 10 11 12 11 12 11 12 13 13 13 12 15 15 15 14 12 12 13 14 15 14 14 13 13 13 13 14 16 17 16 17 18 16 15 16 16 15 17 16 15 17 16 17
8 7 7 5 5 5 5 3 2 2 2 2 2 1 1 2 3 3 3 3 3 3 4 4 5 5 6 6 7 8 8 14 16 16 17 16 18 10 8 9 10 10 10 10 11 11 11 12 12 13 14 15 17 23 21 17 14 13 15 13 13 13 13 13 18 18 16 16 16 16 16 17 22 19 18 16 14 13 14 14 13 13 13 15 17
8 7 7 6 5 4 4 3 3 2 2 1 1 1 2 2 3 2 3 4 4 4 4 4 4 5 6 6 8 9 8 11 15 16 17 18 14 9 9 9 9 10 11 11 11 12 11 12 12 13 15 16 19 24 24 23 15 14 12 11 11 11 12 14 20 25 25 26 27 27 27 27 26 26 27 28 21 17 13 13 12 11 13 14 14
8 8 8 6 6 5 4 3 3 2 1 1 1 2 1 2 2 2 3 4 5 4 5 5 4 4 6 7 6 9 9 11 16 17 17 18 15 11 9 9 10 11 11 11 11 11 12 19 19 17 17 17 23 25 25 21 14 13 13 14 14 14 14 13 11 12 21 25 27 28 29 28 29 29 28 26 24 19 12 15 11 10 14 14 15
9 9 7 6 6 6 4 3 3 2 1 1 1 2 2 3 2 2 3 3 5 4 4 5 5 4 5 7 11 12 10 11 15 17 18 17 14 10 9 9 9 11 11 11 11 11 13 16 22 21 19 20 27 26 27 23 15 14 13 13 14 14 13 15 16 15 11 11 12 14 15 18 16 15 15 23 22 18 13 12 10 11 15 14 14
8 7 7 7 6 4 3 3 2 2 2 1 2 3 2 2 3 3 3 3 4 4 4 5 6 5 4 6 6 7 9 8 10 18 17 18 18 12 10 9 10 11 11 11 11 12 13 13 15 19 23 25 26 27 27 29 18 14 13 11 12 13 11 12 11 11 11 13 12 11 12 11 12 12 12 13 14 15 16 14 14 14 14 14 14
9 8 7 6 4 4 3 3 3 2 2 2 2 2 2 3 3 3 4 3 3 4 5 5 6 6 5 6 6 6 6 9 10 17 18 18 19 16 9 9 10 11 11 12 11 10 9 10 10 17 24 24 25 27 28 29 27 17 12 10 12 16 19 13 12 15 10 8 8 9 10 10 10 11 12 13 13 12 13 14 14 14 14 14 14
8 8 6 4 4 4 4 2 2 2 2 2 2 3 2 2 3 3 3 3 6 6 5 5 6 6 5 5 5 6 7 12 10 14 18 19 19 19 12 11 13 12 10 7 8 10 14 13 12 17 24 26 27 28 30 29 29 17 12 20 25 26 19 14 11 8 8 11 13 14 15 15 14 14 12 11 12 12 13 13 13 14 14 14 15
8 6 5 5 4 4 3 3 2 2 2 2 2 3 3 2 3 3 4 4 5 6 6 6 6 7 6 4 4 5 6 7 14 13 17 19 19 19 20 17 21 14 12 12 12 10 9 13 15 23 27 28 28 29 29 29 22 14 23 24 24 26 22 12 11 11 12 12 12 12 12 12 13 12 13 13 12 12 13 13 15 15 15 15 17
6 6 5 5 5 3 3 2 2 2 2 2 1 3 3 3 3 3 3 3 4 5 4 4 5 7 7 7 5 6 6 6 10 15 15 18 18 21 21 22 21 14 13 11 12 14 14 13 14 24 27 27 28 28 27 23 17 23 24 25 26 23 12 11 10 10 11 11 12 11 12 12 12 13 13 13 13 14 15 15 15 16 17 16 17
7 6 6 5 5 4 2 2 2 2 3 2 2 3 3 2 3 3 3 3 3 5 5 3 5 7 8 8 9 8 8 8 8 10 17 17 20 21 21 22 21 21 14 10 11 11 18 25 26 26 26 26 24 22 18 19 23 24 26 26 23 10 10 10 10 10 11 12 12 12 13 13 14 15 15 16 16 15 15 14 14 15 15 17 17
7 7 6 5 5 3 3 2 2 3 3 3 3 3 3 3 3 3 3 3 3 4 5 4 5 6 7 8 8 8 8 6 7 7 8 13 15 20 23 22 20 20 19 16 22 25 25 25 25 22 16 14 12 10 11 12 21 23 22 19 10 10 9 10 10 11 11 11 12 13 13 13 13 13 14 13 13 14 13 13 13 13 12 13 14
7 6 6 6 4 4 4 3 3 2 2 2 2 3 3 3 3 3 3 4 4 4 4 4 4 5 6 9 9 9 9 8 7 7 8 10 10 10 11 9 17 19 14 11 14 12 13 12 12 17 14 19 18 17 15 15 12 10 9 8 8 8 9 9 9 10 11 11 12 12 13 13 13 13 12 11 13 13 12 14 14 14 13 15 15
8 7 7 6 5 5 5 3 4 3 2 2 3 3 3 3 3 4 4 4 4 5 4 5 5 6 6 7 10 12 8 6 9 10 10 9 8 8 10 10 9 7 8 9 10 12 10 11 12 8 8 8 8 6 7 7 8 8 8 9 9 9 11 14 13 10 10 10 12 12 13 13 13 13 13 13 14 13 12 12 12 14 12 13 14
6 5 5 4 5 3 3 3 3 3 2 2 3 4 4 4 4 5 6 6 7 6 6 7 9 10 9 8 8 7 9 10 9 14 14 18 15 12 9 8 10 10 14 21 14 10 8 8 7 7 6 7 8 8 8 9 9 9 9 9 9 10 9 9 10 10 11 11 12 12 13 12 13 13 13 13 13 13 11 12 13 12 12 11 13
6 6 5 5 4 4 3 3 3 3 3 3 3 4 7 10 9 7 6 10 15 17 14 8 7 7 6 7 7 7 7 10 18 21 20 20 21 20 18 18 18 14 17 17 12 7 7 7 7 8 8 8 9 9 9 9 10 10 10 11 10 9 10 10 10 10 11 11 12 12 13 13 13 12 12 12 13 12 12 14 14 12 14 13 15
6 5 6 5 6 5 4 3 3 3 3 3 2 3 5 7 10 13 13 12 13 14 14 16 16 14 9 6 8 15 16 17 17 17 19 19 19 18 18 17 18 17 16 10 7 6 6 7 8 8 7 7 7 8 9 9 9 10 9 10 9 10 10 9 10 10 11 11 12 12 12 12 12 12 12 12 13 13 12 9 9 11 13 14 13
8 7 6 5 5 5 4 3 3 3 3 2 2 2 2 6 10 8 6 8 10 12 13 12 11 11 13 11 9 8 11 14 15 16 17 17 17 17 17 16 16 16 15 12 4 4 5 6 7 7 8 7 8 8 8 8 8 9 9 10 10 10 9 10 10 10 11 11 11 12 12 12 13 13 12 12 13 12 11 11 9 11 11 12 13
7 6 6 5 5 5 4 4 3 3 3 2 2 1 2 3 6 10 6 5 8 11 10 10 12 12 13 12 12 11 12 13 15 15 16 15 16 15 15 14 14 15 14 7 4 6 6 6 6 6 7 8 8 8 8 8 8 9 8 9 10 11 10 10 12 10 10 11 12 12 13 13 13 14 14 13 12 11 11 11 11 11 12 12 13
7 6 6 6 6 4 4 4 4 3 3 3 2 3 3 3 4 4 7 9 5 5 8 11 12 13 12 13 12 11 12 13 14 14 14 15 15 16 14 9 10 12 11 6 5 7 7 7 7 7 7 8 8 8 8 9 9 9 9 9 9 9 10 10 8 9 9 12 10 11 13 13 13 13 14 14 13 12 12 11 10 10 11 11 12
6 6 8 6 5 5 4 3 5 3 3 3 3 3 3 4 4 4 4 6 7 7 7 8 9 12 11 10 12 13 13 13 13 12 14 14 15 16 13 8 8 6 5 3 4 4 7 7 7 7 7 8 8 7 8 9 9 9 9 10 10 9 9 9 9 9 9 10 11 12 12 13 13 13 13 14 13 13 11 11 11 10 11 11 12
8 7 6 6 6 4 4 5 4 5 4 4 3 3 3 3 5 4 4 4 5 6 4 5 7 10 16 12 12 13 14 14 12 12 12 13 13 14 7 6 5 6 6 3 4 6 5 6 7 8 8 8 8 8 8 9 9 9 10 10 10 10 9 9 9 10 12 13 12 13 13 13 13 13 13 13 14 14 11 10 11 12 12 12 11
8 7 5 4 5 5 5 4 4 4 5 4 4 3 3 3 4 3 5 4 4 4 5 5 7 8 7 4 6 12 15 13 10 11 11 11 12 7 2 3 4 5 6 5 6 6 7 7 7 7 8 7 8 8 8 9 9 10 10 9 9 9 9 9 12 13 13 13 12 12 12 12 13 13 13 13 14 13 12 11 11 13 13 14 15
8 8 7 5 6 5 4 5 6 6 5 3 3 3 3 3 3 4 5 4 4 4 5 4 4 5 7 8 8 6 9 11 10 9 8 9 7 4 3 3 3 4 6 6 7 7 7 8 7 7 8 8 8 9 9 9 9 9 9 9 8 8 15 13 13 9 10 11 12 12 13 13 12 12 13 12 13 13 13 11 10 10 11 13 11
6 7 9 10 7 6 5 5 5 4 4 3 3 4 5 4 4 4 5 4 4 4 5 4 4 4 5 4 6 9 9 4 5 6 6 5 4 4 4 4 4 4 5 6 6 6 6 7 8 7 7 8 8 9 10 9 9 9 9 9 9 8 9 8 9 10 11 12 12 12 12 12 12 12 12 12 12 13 13 13 11 10 10 10 10
7 6 8 11 7 7 6 6 5 4 6 4 5 4 4 5 5 4 4 4 4 4 4 4 5 5 4 3 5 7 4 4 5 4 5 6 4 4 4 4 4 4 5 6 6 5 6 6 7 7 7 8 8 9 8 9 10 10 9 9 9 10 8 8 10 11 11 12 12 12 12 12 12 12 12 11 11 12 13 13 13 12 10 10 10
6 7 5 6 7 5 4 5 5 5 4 5 5 5 6 6 4 5 4 5 5 4 5 6 6 6 4 7 11 10 2 1 5 5 5 5 5 5 4 4 4 4 5 5 6 6 6 7 7 7 7 7 7 7 8 9 10 10 10 10 9 9 9 10 12 12 12 11 11 11 12 12 12 12 12 12 13 13 11 11 11 11 10 10 10
6 6 6 5 6 5 5 6 6 5 5 5 4 5 6 5 4 4 5 4 6 5 4 6 6 5 8 13 11 11 4 1 3 6 5 5 5 5 5 4 4 4 5 5 5 7 7 7 7 7 7 7 7 8 8 9 10 10 11 10 10 9 9 12 12 11 11 11 11 11 11 12 13 12 12 13 11 11 11 11 11 10 10 9 9
7 6 6 6 5 6 6 6 4 4 4 4 5 4 5 4 4 5 5 6 5 5 5 6 6 4 5 8 9 9 3 3 4 5 5 5 5 4 4 4 4 4 5 5 5 5 6 8 8 7 7 7 7 7 8 9 9 10 10 11 11 10 9 10 12 12 12 11 11 12 12 12 11 11 11 11 11 10 10 11 11 10 9 8 7
6 6 6 6 6 4 5 4 4 4 4 5 4 5 5 4 4 4 5 5 5 5 5 6 5 5 5 5 5 4 4 4 4 5 5 5 5 5 5 4 4 5 5 5 5 4 5 6 7 7 7 7 7 7 8 8 9 9 10 10 10 11 9 8 10 10 11 12 12 11 11 11 11 10 11 11 11 10 10 10 10 10 10 8 7
5 6 6 6 6 6 4 4 4 4 5 5 4 4 5 2 4 5 5 6 6 6 5 5 5 5 6 5 4 4 5 5 6 6 6 6 6 5 5 5 5 6 6 6 5 5 6 6 7 7 8 7 8 8 8 8 9 9 9 10 10 10 9 8 9 9 9 9 10 10 10 10 11 10 10 11 11 10 9 9 9 10 10 9 7
6 6 6 6 6 6 5 4 6 4 4 6 6 5 4 3 5 5 6 6 6 5 5 5 5 4 5 5 4 6 6 5 6 6 7 6 5 5 5 5 6 6 6 6 6 6 6 6 6 7 8 8 9 8 8 8 8 9 9 9 10 10 9 9 7 7 8 9 8 9 9 10 10 10 12 11 10 10 9 9 9 8 8 8 8
5 5 5 6 6 6 6 5 4 4 5 6 5 4 4 4 5 5 6 6 6 6 6 6 5 5 4 4 5 5 6 6 6 6 6 6 6 6 5 5 6 6 6 6 5 6 6 7 6 7 8 8 8 9 9 8 8 9 9 9 9 11 10 9 7 5 6 7 7 6 7 8 9 9 11 10 10 10 10 9 9 9 9 8 8
5 5 5 5 4 5 4 3 5 5 6 6 5 5 5 5 4 6 6 6 6 6 6 6 6 5 5 5 5 5 5 6 6 7 6 6 6 5 5 5 6 6 6 7 6 6 6 6 7 7 7 8 7 7 8 8 8 8 9 9 9 10 16 17 7 5 4 5 6 6 6 8 7 8 9 10 9 9 9 9 9 8 8 7 7
5 5 5 5 5 5 5 5 6 5 6 5 4 5 5 4 5 5 5 5 5 6 6 6 5 5 5 5 5 5 6 7 7 6 6 6 5 5 6 6 6 6 6 7 7 6 7 7 7 7 7 7 8 8 8 8 8 8 9 9 11 20 22 19 10 5 7 5 5 6 6 7 8 8 8 8 8 8 7 7 7 8 7 6 5
5 5 5 5 5 5 5 5 5 5 6 5 5 4 4 4 5 6 5 5 5 6 6 6 6 5 5 4 6 6 5 6 6 6 6 6 6 5 5 6 6 6 5 6 7 7 7 6 7 7 7 7 8 8 8 8 8 8 8 10 19 23 20 19 18 11 6 4 4 4 5 6 7 7 8 8 8 8 8 7 7 7 6 6 6
5 5 5 5 5 3 4 5 5 6 5 6 5 5 4 5 5 6 5 6 6 6 6 6 6 5 5 5 6 5 6 6 6 6 6 6 6 5 6 6 6 6 6 6 7 7 7 7 7 7 7 7 8 8 8 8 8 8 13 20 22 21 21 21 16 14 8 5 2 4 5 7 7 8 8 8 8 7 9 8 7 6 6 5 5
Wind_Direction
126 120 122 117 110 100 101 99 97 93 84 76 77 67 61 54 50 50 46 43 34 30 30 24 18 14 8 11 9 1 2 358 358 356 352 351 350 342 340 341 335 328 325 318 314 308 305 299 298 296 293 292 294 296 294 290 289 283 279 277 274 267 261 264 270 279 275 227 254 278 288 298 289 271 287 291 283 269 257 263 270 266 258 260 264
135 142 129 120 107 111 104 100 96 87 83 72 69 64 55 53 47 47 50 34 30 26 24 18 14 9 9 7 5 0 359 357 355 354 349 347 343 343 337 336 329 322 321 316 318 316 310 304 302 301 296 291 293 292 294 295 290 287 282 279 275 276 262 271 275 278 285 278 261 261 273 275 286 281 271 290 290 288 278 269 260 252 263 261 256
143 143 127 113 109 109 105 92 90 80 77 71 71 66 62 55 48 49 40 30 23 28 19 17 11 7 11 6 2 2 358 356 354 352 347 344 339 336 336 333 329 327 325 321 322 319 315 312 309 312 309 303 297 293 291 288 286 283 283 281 280 278 275 266 274 279 282 283 275 275 274 271 268 288 287 274 281 282 283 276 270 265 251 254 258
154 127 116 109 115 103 89 89 82 81 82 82 80 71 62 56 46 46 36 24 25 23 22 14 13 8 9 7 3 1 358 353 350 348 341 337 332 329 327 324 318 314 312 312 316 316 313 312 310 317 315 308 304 305 301 295 295 292 287 284 281 280 279 274 265 270 280 285 282 276 274 278 271 277 285 282 280 277 264 275 272 265 260 246 247
145 132 127 117 104 96 95 91 94 93 93 87 81 73 62 54 42 36 27 20 19 14 12 12 11 9 6 360 358 358 356 348 343 338 334 329 323 319 316 312 308 305 303 303 304 305 304 302 305 310 309 304 302 304 305 303 300 296 290 288 285 283 281 277 274 271 276 278 284 281 278 272 270 269 274 283 284 279 273 264 264 267 263 245 251
146 133 130 114 107 104 108 105 101 99 93 85 79 69 59 48 37 29 26 13 15 12 8 7 3 2 356 356 353 351 348 345 337 330 326 324 316 311 306 304 301 300 299 299 300 301 300 299 301 302 300 299 299 300 300 298 297 292 290 289 289 287 284 281 277 276 273 275 279 287 281 278 279 267 260 263 276 285 285 281 274 256 261 266 236
140 129 119 114 118 119 119 108 100 93 88 83 77 66 53 46 35 26 17 13 13 3 3 2 355 354 346 354 348 344 340 336 326 321 318 316 312 307 306 303 300 298 296 297 296 293 292 293 294 295 293 293 294 296 299 298 293 291 291 293 292 291 288 285 284 282 279 280 281 279 284 280 275 279 271 268 266 270 284 293 291 283 272 263 272
132 121 118 118 123 123 108 104 95 89 86 81 72 61 53 40 32 19 18 12 9 0 355 350 342 346 344 344 336 332 329 324 319 314 310 310 310 309 308 308 306 304 302 302 303 301 299 297 295 294 294 294 296 298 300 299 298 294 294 296 295 292 290 289 288 285 283 282 280 285 283 286 285 274 275 275 274 269 264 276 285 290 287 280 269
124 121 123 122 119 118 113 97 90 87 80 74 61 53 47 37 22 16 14 6 358 347 345 336 332 338 335 332 330 326 319 307 311 313 315 316 315 312 310 306 306 306 306 306 305 304 304 302 300 299 298 297 297 297 295 295 296 295 294 294 294 292 290 287 284 284 282 280 281 280 282 284 283 288 288 281 274 275 279 278 280 282 287 288 283
126 127 121 120 121 111 98 89 88 83 74 65 61 51 51 29 18 10 4 350 337 336 330 325 326 329 326 320 322 315 309 297 295 306 310 311 312 308 305 302 302 302 304 304 303 304 303 302 299 299 301 301 299 296 295 294 292 291 294 299 298 297 294 293 290 289 288 285 282 286 285 282 285 287 289 287 285 281 278 272 271 276 281 280 281
120 125 118 119 112 99 90 89 87 83 78 77 72 70 54 28 19 353 345 329 325 327 321 320 329 321 318 316 316 312 298 288 300 308 310 309 307 303 301 300 299 298 298 299 300 302 302 302 300 302 302 300 296 294 294 294 294 292 291 290 290 290 292 289 286 285 284 281 283 284 283 286 288 293 293 295 293 291 283 280 275 275 276 285 286
122 115 115 114 105 99 101 102 97 98 107 122 114 99 91 69 355 338 323 321 324 317 314 317 318 317 312 310 303 298 295 294 303 307 307 307 305 302 299 297 297 294 294 296 297 299 301 302 300 300 299 296 297 297 296 295 295 296 296 297 294 290 287 287 292 292 287 286 283 280 283 283 290 291 291 296 300 299 300 303 299 294 287 282 279
118 113 113 111 109 111 115 114 118 131 143 161 130 109 106 27 340 328 321 319 312 311 315 316 307 309 306 304 301 296 288 295 301 303 303 304 305 305 297 294 293 292 294 295 296 297 298 299 299 295 294 297 298 296 296 296 297 297 298 299 301 301 300 296 291 288 290 288 288 288 286 295 295 292 297 300 301 295 296 288 285 284 283 282 280
118 120 122 127 131 129 127 132 142 150 162 143 107 84 74 0 321 306 305 312 307 304 301 299 302 302 303 302 297 294 291 292 300 303 305 305 305 304 296 295 293 292 292 292 291 291 292 294 296 296 295 297 295 295 296 295 293 294 294 293 290 288 289 288 286 285 283 281 282 283 287 286 285 290 293 293 288 285 284 282 278 274 270 266 269
123 132 137 145 142 143 144 147 148 156 149 118 94 76 33 312 302 303 307 302 305 301 301 298 291 290 293 293 291 290 284 297 303 305 305 306 306 307 302 297 292 286 286 285 287 288 289 289 290 291 293 292 290 288 291 292 291 284 276 271 272 275 273 271 270 271 272 272 276 279 283 283 282 284 283 282 280 279 279 280 282 281 280 277 274
138 136 147 163 160 157 151 147 157 157 140 109 91 20 308 297 299 301 295 288 273 280 281 280 286 287 287 289 289 287 285 300 304 305 307 309 311 311 302 292 288 285 284 284 286 287 287 286 286 288 286 285 280 285 290 291 288 278 274 268 268 268 268 264 272 278 280 281 281 281 283 284 284 285 286 289 289 288 286 288 288 283 278 277 273
162 164 167 167 164 160 153 154 164 149 132 106 71 306 301 289 293 291 292 290 294 287 279 280 283 286 286 281 288 287 284 297 304 308 311 312 314 303 297 292 288 287 283 284 285 285 286 284 284 280 280 279 275 286 291 292 286 279 280 280 276 273 275 278 274 274 279 279 279 281 283 285 287 289 292 294 295 294 294 292 292 301 295 289 287
167 167 169 165 161 158 159 153 152 147 136 124 231 278 273 280 271 268 286 295 291 280 286 286 273 271 279 282 282 290 287 302 310 311 312 311 310 305 299 291 286 285 284 283 285 285 284 282 279 279 279 281 282 286 289 290 287 285 280 274 271 267 269 268 262 259 263 272 275 278 278 280 282 285 288 290 291 290 285 282 295 305 291 289 290
172 174 168 159 156 153 153 149 149 152 152 203 208 246 265 262 272 274 259 263 273 284 282 285 280 271 263 271 286 290 289 299 309 309 309 309 309 301 295 289 287 287 290 288 285 285 282 276 275 276 281 286 290 294 294 292 288 280 273 267 270 267 269 272 276 276 265 260 258 262 265 270 272 270 269 273 278 282 285 289 295 286 284 285 285
162 139 142 149 149 149 149 150 153 151 179 213 222 235 259 264 265 278 278 277 282 284 284 281 286 283 276 274 273 280 291 293 302 306 308 307 307 303 296 291 291 290 289 287 279 267 267 271 271 274 285 290 292 293 292 291 287 279 277 276 276 277 273 268 268 267 263 266 269 264 264 268 272 274 277 281 281 275 273 274 276 274 275 280 280
142 146 143 143 151 151 148 154 159 188 184 210 230 256 254 271 286 277 281 285 280 288 287 284 282 283 282 280 277 280 276 288 292 304 306 307 307 305 293 278 276 280 276 269 264 265 266 265 254 264 285 291 292 292 289 288 289 286 281 275 273 273 281 280 275 281 293 294 292 291 290 287 282 279 277 276 274 272 271 270 268 268 270 275 277
143 145 155 156 156 152 157 162 162 185 201 186 213 249 249 256 270 274 275 284 290 289 289 288 288 287 288 279 276 278 278 284 287 295 301 305 306 304 301 291 289 284 278 268 283 289 286 283 282 290 292 292 290 288 288 290 292 297 292 295 297 303 307 307 309 307 296 295 294 293 292 289 287 287 281 276 276 274 276 274 270 269 268 267 270
147 152 154 159 164 167 169 170 188 169 203 205 212 249 263 267 271 271 278 283 284 292 292 294 295 298 295 289 281 273 269 263 281 285 293 303 305 305 303 302 300 298 296 291 277 272 280 290 292 290 290 289 288 289 290 298 309 310 309 308 306 305 306 307 305 301 297 296 296 294 293 291 291 291 290 289 288 284 281 277 275 274 271 269 267
147 152 165 170 163 170 182 183 191 200 209 215 220 249 271 269 268 262 264 268 287 291 295 293 299 303 305 304 296 293 282 273 274 282 287 297 304 307 308 306 302 295 288 292 300 296 291 280 276 285 293 297 302 305 311 318 315 313 311 310 310 316 319 316 312 308 304 297 293 291 288 286 288 287 286 288 289 289 286 283 280 277 274 273 269
151 168 174 175 176 184 173 194 214 227 231 199 228 246 269 260 275 257 267 279 276 282 289 290 293 298 301 299 308 309 308 304 297 291 299 306 308 308 307 305 303 301 300 290 287 288 293 295 298 300 300 303 309 316 320 317 314 311 311 312 318 323 318 310 307 305 298 293 290 285 281 280 281 281 282 284 286 284 282 281 277 275 272 269 267
167 178 179 175 188 165 174 240 236 233 238 214 211 224 232 254 258 276 265 262 258 266 283 291 285 286 286 295 299 298 290 283 287 286 284 302 303 299 298 301 304 305 304 301 299 299 298 300 305 313 327 336 334 325 317 315 312 313 313 316 317 312 311 309 303 300 292 291 289 285 285 288 288 290 289 285 282 278 277 277 284 283 281 278 278
168 172 180 183 174 165 178 217 236 234 225 230 224 229 233 224 243 264 254 260 264 259 271 275 281 274 274 296 296 296 300 296 284 299 310 300 286 279 288 279 301 302 293 276 285 289 303 322 327 324 329 327 326 321 317 316 315 312 308 306 302 299 299 292 290 290 292 291 291 289 292 292 293 292 290 288 284 279 277 278 277 277 278 279 276
174 181 183 179 181 177 184 206 211 232 237 215 237 257 247 227 232 242 247 250 256 271 257 265 265 272 272 279 294 299 287 295 317 314 302 285 286 300 299 291 289 295 310 323 323 324 326 326 330 341 336 328 320 312 307 303 302 307 309 311 306 302 301 301 299 292 289 292 292 293 291 294 293 292 290 287 282 281 277 271 265 274 273 279 275
167 171 174 162 188 182 190 199 202 207 244 253 247 226 243 261 252 258 242 239 243 242 258 258 263 269 262 260 265 285 311 313 308 306 307 314 316 310 311 323 334 339 335 328 329 339 342 340 335 333 332 326 326 325 325 323 324 321 317 316 318 320 319 317 313 308 306 302 298 296 294 292 291 290 288 284 281 279 274 274 271 268 272 274 277
165 183 173 178 188 185 196 203 205 205 216 240 264 287 256 255 258 252 252 259 259 260 255 250 253 262 274 284 303 308 305 302 305 311 316 314 315 324 331 332 338 340 336 353 7 354 347 336 335 337 336 338 332 329 327 326 322 321 318 318 316 313 310 310 305 303 303 299 297 296 292 290 286 285 281 277 276 271 268 270 274 270 272 272 275
173 176 175 188 187 184 185 194 203 201 213 218 243 262 303 298 290 288 285 281 277 279 287 291 298 302 303 302 304 300 300 303 309 314 314 317 326 332 334 343 346 344 348 8 10 353 339 334 330 326 326 324 320 319 319 316 313 311 308 308 303 302 303 298 297 299 298 296 293 288 285 282 280 279 278 277 275 274 271 249 248 259 263 265 265
175 185 181 182 180 177 177 185 193 207 221 225 233 266 297 315 311 303 305 303 299 301 301 303 307 312 310 307 305 303 305 308 314 316 316 325 332 333 339 353 349 348 354 12 353 332 331 327 321 318 320 319 315 313 310 308 304 304 303 305 305 304 302 302 301 300 298 295 292 293 295 296 292 289 281 278 274 272 269 267 260 260 260 262 263
168 166 172 168 173 172 179 183 198 197 214 225 244 240 268 278 293 311 315 314 310 305 313 316 317 316 318 318 312 308 313 318 320 318 324 333 335 337 352 5 352 353 357 4 345 328 326 323 314 316 320 313 313 312 307 306 303 303 301 298 299 303 301 296 299 294 292 292 298 296 298 296 296 295 296 293 287 278 277 272 271 265 263 261 266
167 165 169 172 166 177 176 188 189 200 202 201 204 226 238 239 262 268 304 321 323 311 306 307 315 325 323 323 320 319 321 324 323 323 336 339 339 344 2 1 355 4 2 345 333 328 328 325 322 319 316 309 307 307 303 305 307 303 299 297 294 294 293 295 299 297 294 297 290 294 303 304 304 306 305 304 300 291 280 275 270 266 266 260 259
160 167 163 161 172 175 176 180 185 193 191 200 212 222 237 241 241 259 282 291 302 313 323 317 319 321 325 324 323 326 329 330 326 335 344 344 343 352 3 4 357 348 354 330 318 309 314 315 311 312 312 309 307 307 305 305 305 305 303 304 301 294 301 307 307 297 289 300 307 310 307 309 309 306 306 304 303 297 283 277 274 268 267 272 272
165 166 173 169 172 171 175 180 186 192 197 209 202 217 227 229 242 258 267 270 279 293 290 291 295 310 314 320 329 331 331 329 327 346 348 347 352 6 2 349 337 326 323 309 314 316 308 306 308 307 310 305 307 306 306 303 303 302 301 303 301 300 305 311 309 312 320 318 310 309 311 309 308 307 305 302 299 295 281 274 276 277 274 272 272
166 169 166 172 170 174 174 181 188 196 210 201 204 208 206 232 250 249 259 263 270 262 270 295 310 313 315 285 314 327 323 319 326 344 349 348 358 10 331 303 290 304 313 323 325 322 317 312 308 303 304 304 306 304 304 303 299 300 296 293 296 305 308 306 324 327 317 314 315 313 313 311 310 309 307 304 304 302 297 287 284 283 284 282 285
170 167 168 164 164 168 174 187 197 209 208 204 177 180 224 229 235 243 251 260 263 276 290 287 287 292 303 303 326 316 302 302 329 342 345 349 352 344 321 290 306 313 317 314 316 309 306 306 307 305 305 305 304 307 312 307 307 306 306 306 310 312 318 319 324 312 314 317 319 319 317 315 313 310 308 304 303 306 304 290 280 282 281 281 282
158 170 170 172 175 173 180 184 199 199 200 186 192 200 221 225 234 240 247 251 263 274 272 277 272 260 265 284 310 308 303 314 347 331 325 318 315 311 307 311 304 306 304 302 302 301 301 305 309 307 305 309 309 313 317 314 308 304 305 309 316 319 328 323 320 324 322 325 324 322 319 315 312 309 307 305 307 309 312 312 296 277 274 279 281
148 174 182 185 190 189 171 184 185 187 189 187 206 202 221 227 229 232 242 250 263 267 271 279 278 267 264 269 276 282 288 324 323 316 306 312 311 312 308 303 305 299 304 305 307 304 304 303 305 308 308 311 314 315 312 310 310 309 309 312 318 321 322 321 324 326 325 325 323 321 319 317 314 312 310 312 311 312 314 314 317 311 296 287 289
164 170 178 190 177 188 177 183 195 199 195 196 200 207 218 221 225 227 229 241 253 262 269 267 269 274 271 277 298 313 28 323 311 299 289 289 295 295 296 284 287 294 296 297 304 308 304 306 308 307 309 309 311 309 311 314 313 315 315 314 315 316 322 330 334 330 326 323 321 319 319 320 317 318 319 320 320 319 313 313 316 320 320 315 310
164 167 172 181 180 172 185 202 200 200 191 195 205 210 219 225 226 229 234 240 242 252 267 269 269 272 284 301 309 322 354 345 287 280 282 274 271 271 271 272 271 276 288 295 303 308 308 306 303 304 306 309 312 311 312 312 315 316 315 316 318 319 326 338 338 329 327 326 322 320 320 318 320 321 319 319 320 321 320 319 321 319 321 321 317
168 171 169 166 179 187 193 202 189 189 203 205 221 223 223 218 225 232 240 241 242 248 252 268 278 278 286 297 312 326 331 296 270 274 273 274 271 273 276 281 284 285 287 286 288 288 294 297 297 297 299 302 303 305 308 307 309 312 312 314 317 318 321 334 339 338 334 328 324 322 320 320 323 323 322 323 323 322 321 323 324 324 322 322 324
167 164 166 177 180 185 187 184 196 200 196 210 217 218 219 220 231 238 237 246 244 244 246 256 266 282 285 297 312 320 298 290 281 278 275 284 285 289 293 294 298 296 295 293 289 284 288 290 292 295 294 294 298 299 299 301 306 307 310 311 315 318 321 330 339 339 334 328 322 322 321 321 322 321 321 323 326 326 326 328 328 327 327 327 334
163 165 171 176 182 182 196 193 198 202 206 213 223 226 221 219 234 239 239 244 245 243 247 251 258 267 282 291 300 296 292 287 285 287 285 280 286 289 294 296 298 297 297 294 290 293 289 288 290 296 300 301 304 305 304 303 306 305 308 310 311 317 321 327 334 334 331 326 323 323 324 325 325 326 327 326 325 325 325 327 327 328 331 332 337
170 171 175 178 182 188 192 202 202 197 206 212 218 225 227 225 231 235 242 243 245 247 247 250 250 252 260 276 283 283 281 286 281 275 277 281 281 286 286 289 290 290 288 289 293 293 289 288 292 295 299 300 305 304 306 304 306 305 306 308 311 311 314 320 323 329 334 332 326 322 322 324 326 326 329 329 327 328 325 327 327 335 332 331 342
167 176 180 181 187 193 196 195 193 203 209 219 216 220 227 227 227 237 237 241 245 246 249 248 244 251 249 258 263 271 270 271 274 280 276 277 278 279 284 283 286 287 289 290 289 290 289 287 287 291 294 296 298 299 301 305 308 307 307 307 306 311 313 322 318 320 324 326 326 321 322 321 324 325 328 332 336 336 334 334 337 339 340 349 353
179 179 184 184 182 191 203 190 204 212 210 217 217 219 226 231 237 239 243 246 252 253 256 254 249 247 249 252 252 258 265 266 268 265 274 273 275 274 279 281 284 285 292 293 292 291 288 288 287 290 291 294 295 298 300 304 306 307 307 307 307 311 312 313 311 314 323 330 329 326 325 325 322 323 329 332 336 336 338 341 339 341 348 354 0
180 185 186 186 195 203 198 203 205 211 218 217 220 229 228 235 240 243 246 247 249 250 246 250 253 246 245 252 255 260 259 266 270 273 269 271 273 275 276 278 282 285 286 290 293 294 291 292 290 290 288 291 294 294 297 299 303 305 306 304 305 308 310 317 322 311 335 337 330 333 334 335 333 332 329 331 335 336 334 339 344 344 344 349 356
191 191 189 197 206 213 206 202 211 216 217 210 210 225 230 231 244 244 245 243 250 251 250 247 251 248 244 259 259 263 263 267 267 272 273 276 275 277 281 283 284 284 284 287 290 291 292 292 293 291 292 293 295 294 295 295 297 298 301 301 306 309 316 328 327 321 346 344 336 334 332 331 332 334 338 337 337 338 340 341 344 346 351 351 352
197 194 200 205 213 213 204 208 220 220 217 216 214 220 229 232 239 243 242 240 243 249 251 248 249 251 247 244 249 259 263 264 263 265 270 272 277 280 283 284 287 289 290 285 287 288 290 292 292 293 294 293 296 296 296 295 295 296 300 306 312 318 326 328 327 325 341 359 340 339 350 347 344 341 342 344 343 346 345 342 346 352 355 353 350